Location: T�bingen+AIT
(48.5342°N, 9.0700°E)
Time: 15:08:36
(UTC+01:00)

In-Cosmos 22 - Pass Details

Date: 14 September 2017
Orbit: 785 x 877 km, 81.2° (Epoch: 17 November)

Event Time Altitude Azimuth Distance (km) Brightness Sun altitude
Rises 21:17:45 0° 351° (N) 3,377 7.8 -16.7°
Reaches altitude 10° 21:20:13 10° 357° (N) 2,453 7.0 -17.0°
Maximum altitude 21:25:38 51° 73° (ENE) 1,059 4.4 -17.8°
Enters shadow 21:28:09 30° 133° (SE) 1,480 4.9 -18.2°
